Location: Namasale
(1.5000°N, 32.6167°E)
Time: 18:53:28
(UTC+00:00)

Vanguard 1 Rocket - Pass Details

Date: 20 April 2021
Orbit: 652 x 4224 km, 34.3° (Epoch: 09 May)

Event Time Altitude Azimuth Distance (km) Brightness Sun altitude
Rises 17:35:08 0° 322° (NW) 3,579 11.2 -25.7°
Reaches altitude 10° 17:37:19 10° 329° (NNW) 2,878 10.5 -26.3°
Maximum altitude 17:44:06 46° 43° (NE) 1,977 8.8 -27.9°
Enters shadow 17:45:57 43° 70° (ENE) 2,253 8.9 -28.4°
Drops below altitude 10° 17:56:50 10° 112° (ESE) 5,300 - -31.0°
Sets 18:02:29 0° 116° (ESE) 6,916 - -32.4°
